Year,Month,Day,Hour,Minute,Value (Times are PST for temperature in C)
2013,06,19,00,00,10.90
2013,06,19,00,01,10.80
2013,06,19,00,02,10.80
2013,06,19,00,03,10.80
2013,06,19,00,04,10.80
2013,06,19,00,05,10.80
2013,06,19,00,06,10.80
2013,06,19,00,07,10.80
2013,06,19,00,08,10.80
2013,06,19,00,09,10.80
2013,06,19,00,10,10.80
2013,06,19,00,11,10.80
2013,06,19,00,12,10.80
2013,06,19,00,13,10.80
2013,06,19,00,14,10.80
2013,06,19,00,15,10.80
2013,06,19,00,16,10.80
2013,06,19,00,17,10.80
2013,06,19,00,18,10.80
2013,06,19,00,19,10.80
2013,06,19,00,20,10.80
2013,06,19,00,21,10.80
2013,06,19,00,22,10.80
2013,06,19,00,23,10.80
2013,06,19,00,24,10.80
2013,06,19,00,25,10.80
2013,06,19,00,26,10.80
2013,06,19,00,27,10.80
2013,06,19,00,28,10.70
2013,06,19,00,29,10.70
2013,06,19,00,30,10.70
2013,06,19,00,31,10.70
2013,06,19,00,32,10.70
2013,06,19,00,33,10.70
2013,06,19,00,34,10.60
2013,06,19,00,35,10.60
2013,06,19,00,36,10.60
2013,06,19,00,37,10.60
2013,06,19,00,38,10.60
2013,06,19,00,39,10.50
2013,06,19,00,40,10.50
2013,06,19,00,41,10.50
2013,06,19,00,42,10.50
2013,06,19,00,43,10.50
2013,06,19,00,44,10.50
2013,06,19,00,45,10.50
2013,06,19,00,46,10.50
2013,06,19,00,47,10.50
2013,06,19,00,48,10.50
2013,06,19,00,49,10.40
2013,06,19,00,50,10.50
2013,06,19,00,51,10.50
2013,06,19,00,52,10.40
2013,06,19,00,53,10.40
2013,06,19,00,54,10.40
2013,06,19,00,55,10.40
2013,06,19,00,56,10.40
2013,06,19,00,57,10.40
2013,06,19,00,58,10.30
2013,06,19,00,59,10.30
2013,06,19,01,00,10.30
2013,06,19,01,01,10.30
2013,06,19,01,02,10.30
2013,06,19,01,03,10.30
2013,06,19,01,04,10.30
2013,06,19,01,05,10.30
2013,06,19,01,06,10.30
2013,06,19,01,07,10.30
2013,06,19,01,08,10.30
2013,06,19,01,09,10.20
2013,06,19,01,10,10.20
2013,06,19,01,11,10.20
2013,06,19,01,12,10.20
2013,06,19,01,13,10.20
2013,06,19,01,14,10.20
2013,06,19,01,15,10.20
2013,06,19,01,16,10.20
2013,06,19,01,17,10.20
2013,06,19,01,18,10.20
2013,06,19,01,19,10.20
2013,06,19,01,20,10.20
2013,06,19,01,21,10.20
2013,06,19,01,22,10.20
2013,06,19,01,23,10.20
2013,06,19,01,24,10.20
2013,06,19,01,25,10.20
2013,06,19,01,26,10.20
2013,06,19,01,27,10.10
2013,06,19,01,28,10.10
2013,06,19,01,29,10.10
2013,06,19,01,30,10.10
2013,06,19,01,31,10.10
2013,06,19,01,32,10.10
2013,06,19,01,33,10.10
2013,06,19,01,34,10.10
2013,06,19,01,35,10.10
2013,06,19,01,36,10.10
2013,06,19,01,37,10.10
2013,06,19,01,38,10.10
2013,06,19,01,39,10.10
2013,06,19,01,40,10.10
2013,06,19,01,41,10.10
2013,06,19,01,42,10.10
2013,06,19,01,43,10.10
2013,06,19,01,44,10.10
2013,06,19,01,45,10.10
2013,06,19,01,46,10.10
2013,06,19,01,47,10.10
2013,06,19,01,48,10.10
2013,06,19,01,49,10.10
2013,06,19,01,50,10.10
2013,06,19,01,51,10.10
2013,06,19,01,52,10.10
2013,06,19,01,53,10.10
2013,06,19,01,54,10.10
2013,06,19,01,55,10.10
2013,06,19,01,56,10.10
2013,06,19,01,57,10.10
2013,06,19,01,58,10.10
2013,06,19,01,59,10.10
2013,06,19,02,00,10.00
2013,06,19,02,01,10.00
2013,06,19,02,02,10.00
2013,06,19,02,03,10.00
2013,06,19,02,04,10.00
2013,06,19,02,05,10.00
2013,06,19,02,06,10.00
2013,06,19,02,07,10.00
2013,06,19,02,08,9.90
2013,06,19,02,09,9.90
2013,06,19,02,10,9.90
2013,06,19,02,11,9.90
2013,06,19,02,12,9.90
2013,06,19,02,13,9.90
2013,06,19,02,14,9.90
2013,06,19,02,15,9.80
2013,06,19,02,16,9.80
2013,06,19,02,17,9.80
2013,06,19,02,18,9.80
2013,06,19,02,19,9.80
2013,06,19,02,20,9.80
2013,06,19,02,21,9.80
2013,06,19,02,22,9.80
2013,06,19,02,23,9.80
2013,06,19,02,24,9.80
2013,06,19,02,25,9.80
2013,06,19,02,26,9.80
2013,06,19,02,27,9.80
2013,06,19,02,28,9.80
2013,06,19,02,29,9.80
2013,06,19,02,30,9.80
2013,06,19,02,31,9.80
2013,06,19,02,32,9.80
2013,06,19,02,33,9.80
2013,06,19,02,34,9.80
2013,06,19,02,35,9.90
2013,06,19,02,36,9.90
2013,06,19,02,37,9.90
2013,06,19,02,38,9.90
2013,06,19,02,39,9.80
2013,06,19,02,40,9.80
2013,06,19,02,41,9.80
2013,06,19,02,42,9.80
2013,06,19,02,43,9.80
2013,06,19,02,44,9.70
2013,06,19,02,45,9.70
2013,06,19,02,46,9.70
2013,06,19,02,47,9.60
2013,06,19,02,48,9.60
2013,06,19,02,49,9.60
2013,06,19,02,50,9.60
2013,06,19,02,51,9.60
2013,06,19,02,52,9.60
2013,06,19,02,53,9.60
2013,06,19,02,54,9.60
2013,06,19,02,55,9.60
2013,06,19,02,56,9.60
2013,06,19,02,57,9.60
2013,06,19,02,58,9.60
2013,06,19,02,59,9.60
2013,06,19,03,00,9.60
2013,06,19,03,01,9.60
2013,06,19,03,02,9.60
2013,06,19,03,03,9.60
2013,06,19,03,04,9.60
2013,06,19,03,05,9.60
2013,06,19,03,06,9.60
2013,06,19,03,07,9.60
2013,06,19,03,08,9.60
2013,06,19,03,09,9.60
2013,06,19,03,10,9.60
2013,06,19,03,11,9.60
2013,06,19,03,12,9.60
2013,06,19,03,13,9.60
2013,06,19,03,14,9.60
2013,06,19,03,15,9.60
2013,06,19,03,16,9.60
2013,06,19,03,17,9.50
2013,06,19,03,18,9.50
2013,06,19,03,19,9.50
2013,06,19,03,20,9.50
2013,06,19,03,21,9.40
2013,06,19,03,22,9.40
2013,06,19,03,23,9.40
2013,06,19,03,24,9.40
2013,06,19,03,25,9.40
2013,06,19,03,26,9.40
2013,06,19,03,27,9.40
2013,06,19,03,28,9.30
2013,06,19,03,29,9.30
2013,06,19,03,30,9.30
2013,06,19,03,31,9.30
2013,06,19,03,32,9.30
2013,06,19,03,33,9.30
2013,06,19,03,34,9.30
2013,06,19,03,35,9.30
2013,06,19,03,36,9.30
2013,06,19,03,37,9.30
2013,06,19,03,38,9.30
2013,06,19,03,39,9.30
2013,06,19,03,40,9.30
2013,06,19,03,41,9.30
2013,06,19,03,42,9.20
2013,06,19,03,43,9.20
2013,06,19,03,44,9.20
2013,06,19,03,45,9.20
2013,06,19,03,46,9.20
2013,06,19,03,47,9.20
2013,06,19,03,48,9.30
2013,06,19,03,49,9.20
2013,06,19,03,50,9.20
2013,06,19,03,51,9.20
2013,06,19,03,52,9.20
2013,06,19,03,53,9.20
2013,06,19,03,54,9.20
2013,06,19,03,55,9.10
2013,06,19,03,56,9.10
2013,06,19,03,57,9.10
2013,06,19,03,58,9.10
2013,06,19,03,59,9.10
2013,06,19,04,00,9.10
2013,06,19,04,01,9.10
2013,06,19,04,02,9.10
2013,06,19,04,03,9.10
2013,06,19,04,04,9.10
2013,06,19,04,05,9.10
2013,06,19,04,06,9.10
2013,06,19,04,07,9.10
2013,06,19,04,08,9.10
2013,06,19,04,09,9.10
2013,06,19,04,10,9.20
2013,06,19,04,11,9.20
2013,06,19,04,12,9.20
2013,06,19,04,13,9.20
2013,06,19,04,14,9.10
2013,06,19,04,15,9.10
2013,06,19,04,16,9.10
2013,06,19,04,17,9.10
2013,06,19,04,18,9.10
2013,06,19,04,19,9.00
2013,06,19,04,20,9.00
2013,06,19,04,21,9.00
2013,06,19,04,22,9.00
2013,06,19,04,23,8.90
2013,06,19,04,24,8.90
2013,06,19,04,25,8.90
2013,06,19,04,26,8.90
2013,06,19,04,27,8.90
2013,06,19,04,28,8.90
2013,06,19,04,29,8.90
2013,06,19,04,30,8.90
2013,06,19,04,31,8.90
2013,06,19,04,32,8.90
2013,06,19,04,33,8.90
2013,06,19,04,34,8.90
2013,06,19,04,35,8.90
2013,06,19,04,36,8.90
2013,06,19,04,37,8.80
2013,06,19,04,38,8.80
2013,06,19,04,39,8.80
2013,06,19,04,40,8.80
2013,06,19,04,41,8.80
2013,06,19,04,42,8.80
2013,06,19,04,43,8.80
2013,06,19,04,44,8.90
2013,06,19,04,45,8.90
2013,06,19,04,46,8.90
2013,06,19,04,47,8.90
2013,06,19,04,48,8.90
2013,06,19,04,49,8.90
2013,06,19,04,50,8.90
2013,06,19,04,51,8.90
2013,06,19,04,52,8.90
2013,06,19,04,53,8.80
2013,06,19,04,54,8.80
2013,06,19,04,55,8.80
2013,06,19,04,56,8.80
2013,06,19,04,57,8.80
2013,06,19,04,58,8.80
2013,06,19,04,59,8.80
2013,06,19,05,00,8.90
2013,06,19,05,01,8.90
2013,06,19,05,02,8.90
2013,06,19,05,03,8.90
2013,06,19,05,04,8.90
2013,06,19,05,05,8.90
2013,06,19,05,06,8.90
2013,06,19,05,07,8.90
2013,06,19,05,08,8.90
2013,06,19,05,09,8.90
2013,06,19,05,10,8.90
2013,06,19,05,11,8.90
2013,06,19,05,12,8.90
2013,06,19,05,13,8.90
2013,06,19,05,14,8.90
2013,06,19,05,15,8.90
2013,06,19,05,16,8.90
2013,06,19,05,17,8.90
2013,06,19,05,18,8.90
2013,06,19,05,19,8.90
2013,06,19,05,20,8.90
2013,06,19,05,21,8.90
2013,06,19,05,22,8.90
2013,06,19,05,23,8.90
2013,06,19,05,24,9.00
2013,06,19,05,25,9.00
2013,06,19,05,26,9.00
2013,06,19,05,27,9.00
2013,06,19,05,28,9.00
2013,06,19,05,29,9.00
2013,06,19,05,30,9.00
2013,06,19,05,31,9.10
2013,06,19,05,32,9.10
2013,06,19,05,33,9.10
2013,06,19,05,34,9.10
2013,06,19,05,35,9.10
2013,06,19,05,36,9.10
2013,06,19,05,37,9.10
2013,06,19,05,38,9.10
2013,06,19,05,39,9.10
2013,06,19,05,40,9.10
2013,06,19,05,41,9.10
2013,06,19,05,42,9.10
2013,06,19,05,43,9.10
2013,06,19,05,44,9.10
2013,06,19,05,45,9.10
2013,06,19,05,46,9.10
2013,06,19,05,47,9.20
2013,06,19,05,48,9.20
2013,06,19,05,49,9.20
2013,06,19,05,50,9.20
2013,06,19,05,51,9.30
2013,06,19,05,52,9.30
2013,06,19,05,53,9.30
2013,06,19,05,54,9.30
2013,06,19,05,55,9.30
2013,06,19,05,56,9.30
2013,06,19,05,57,9.30
2013,06,19,05,58,9.30
2013,06,19,05,59,9.30
2013,06,19,06,00,9.40
2013,06,19,06,01,9.40
2013,06,19,06,02,9.40
2013,06,19,06,03,9.40
2013,06,19,06,04,9.40
2013,06,19,06,05,9.40
2013,06,19,06,06,9.40
2013,06,19,06,07,9.40
2013,06,19,06,08,9.50
2013,06,19,06,09,9.50
2013,06,19,06,10,9.50
2013,06,19,06,11,9.60
2013,06,19,06,12,9.60
2013,06,19,06,13,9.60
2013,06,19,06,14,9.60
2013,06,19,06,15,9.70
2013,06,19,06,16,9.70
2013,06,19,06,17,9.70
2013,06,19,06,18,9.70
2013,06,19,06,19,9.80
2013,06,19,06,20,9.80
2013,06,19,06,21,9.80
2013,06,19,06,22,9.80
2013,06,19,06,23,9.80
2013,06,19,06,24,9.80
2013,06,19,06,25,9.80
2013,06,19,06,26,9.80
2013,06,19,06,27,9.80
2013,06,19,06,28,9.80
2013,06,19,06,29,9.80
2013,06,19,06,30,9.80
2013,06,19,06,31,9.90
2013,06,19,06,32,9.80
2013,06,19,06,33,9.90
2013,06,19,06,34,9.90
2013,06,19,06,35,9.90
2013,06,19,06,36,9.90
2013,06,19,06,37,10.00
2013,06,19,06,38,10.00
2013,06,19,06,39,10.00
2013,06,19,06,40,10.00
2013,06,19,06,41,10.10
2013,06,19,06,42,10.10
2013,06,19,06,43,10.10
2013,06,19,06,44,10.10
2013,06,19,06,45,10.20
2013,06,19,06,46,10.20
2013,06,19,06,47,10.30
2013,06,19,06,48,10.30
2013,06,19,06,49,10.30
2013,06,19,06,50,10.40
2013,06,19,06,51,10.50
2013,06,19,06,52,10.60
2013,06,19,06,53,10.70
2013,06,19,06,54,10.70
2013,06,19,06,55,10.80
2013,06,19,06,56,10.80
2013,06,19,06,57,10.90
2013,06,19,06,58,10.90
2013,06,19,06,59,11.00
2013,06,19,07,00,11.10
2013,06,19,07,01,11.20
2013,06,19,07,02,11.20
2013,06,19,07,03,11.30
2013,06,19,07,04,11.30
2013,06,19,07,05,11.40
2013,06,19,07,06,11.40
2013,06,19,07,07,11.50
2013,06,19,07,08,11.60
2013,06,19,07,09,11.60
2013,06,19,07,10,11.70
2013,06,19,07,11,11.70
2013,06,19,07,12,11.80
2013,06,19,07,13,11.80
2013,06,19,07,14,11.90
2013,06,19,07,15,12.00
2013,06,19,07,16,12.00
2013,06,19,07,17,12.10
2013,06,19,07,18,12.20
2013,06,19,07,19,12.20
2013,06,19,07,20,12.30
2013,06,19,07,21,12.30
2013,06,19,07,22,12.40
2013,06,19,07,23,12.40
2013,06,19,07,24,12.50
2013,06,19,07,25,12.60
2013,06,19,07,26,12.60
2013,06,19,07,27,12.70
2013,06,19,07,28,12.70
2013,06,19,07,29,12.70
2013,06,19,07,30,12.80
2013,06,19,07,31,12.80
2013,06,19,07,32,12.80
2013,06,19,07,33,12.90
2013,06,19,07,34,12.90
2013,06,19,07,35,12.90
2013,06,19,07,36,12.90
2013,06,19,07,37,12.90
2013,06,19,07,38,12.90
2013,06,19,07,39,12.90
2013,06,19,07,40,12.90
2013,06,19,07,41,12.90
2013,06,19,07,42,12.90
2013,06,19,07,43,13.00
2013,06,19,07,44,13.00
2013,06,19,07,45,13.10
2013,06,19,07,46,13.10
2013,06,19,07,47,13.10
2013,06,19,07,48,13.10
2013,06,19,07,49,13.10
2013,06,19,07,50,13.10
2013,06,19,07,51,13.10
2013,06,19,07,52,13.10
2013,06,19,07,53,13.00
2013,06,19,07,54,13.00
2013,06,19,07,55,13.00
2013,06,19,07,56,13.00
2013,06,19,07,57,13.00
2013,06,19,07,58,13.00
2013,06,19,07,59,13.10
2013,06,19,08,00,13.10
2013,06,19,08,01,13.10
2013,06,19,08,02,13.10
2013,06,19,08,03,13.10
2013,06,19,08,04,13.20
2013,06,19,08,05,13.20
2013,06,19,08,06,13.20
2013,06,19,08,07,13.30
2013,06,19,08,08,13.30
2013,06,19,08,09,13.40
2013,06,19,08,10,13.40
2013,06,19,08,11,13.50
2013,06,19,08,12,13.60
2013,06,19,08,13,13.60
2013,06,19,08,14,13.70
2013,06,19,08,15,13.70
2013,06,19,08,16,13.70
2013,06,19,08,17,13.80
2013,06,19,08,18,13.80
2013,06,19,08,19,13.80
2013,06,19,08,20,13.80
2013,06,19,08,21,13.80
2013,06,19,08,22,13.90
2013,06,19,08,23,13.90
2013,06,19,08,24,13.90
2013,06,19,08,25,14.00
2013,06,19,08,26,14.00
2013,06,19,08,27,14.10
2013,06,19,08,28,14.10
2013,06,19,08,29,14.20
2013,06,19,08,30,14.30
2013,06,19,08,31,14.30
2013,06,19,08,32,14.40
2013,06,19,08,33,14.40
2013,06,19,08,34,14.50
2013,06,19,08,35,14.60
2013,06,19,08,36,14.70
2013,06,19,08,37,14.80
2013,06,19,08,38,15.00
2013,06,19,08,39,15.00
2013,06,19,08,40,15.00
2013,06,19,08,41,15.10
2013,06,19,08,42,15.30
2013,06,19,08,43,15.30
2013,06,19,08,44,15.40
2013,06,19,08,45,15.50
2013,06,19,08,46,15.50
2013,06,19,08,47,15.50
2013,06,19,08,48,15.50
2013,06,19,08,49,15.50
2013,06,19,08,50,15.40
2013,06,19,08,51,15.40
2013,06,19,08,52,15.40
2013,06,19,08,53,15.40
2013,06,19,08,54,15.30
2013,06,19,08,55,15.30
2013,06,19,08,56,15.10
2013,06,19,08,57,15.00
2013,06,19,08,58,15.00
2013,06,19,08,59,15.00
2013,06,19,09,00,15.00
2013,06,19,09,01,15.00
2013,06,19,09,02,14.90
2013,06,19,09,03,14.90
2013,06,19,09,04,14.80
2013,06,19,09,05,14.80
2013,06,19,09,06,14.80
2013,06,19,09,07,14.80
2013,06,19,09,08,14.80
2013,06,19,09,09,14.80
2013,06,19,09,10,14.90
2013,06,19,09,11,15.00
2013,06,19,09,12,15.00
2013,06,19,09,13,15.00
2013,06,19,09,14,15.00
2013,06,19,09,15,15.00
2013,06,19,09,16,15.00
2013,06,19,09,17,15.00
2013,06,19,09,18,15.00
2013,06,19,09,19,15.00
2013,06,19,09,20,15.00
2013,06,19,09,21,15.00
2013,06,19,09,22,15.00
2013,06,19,09,23,14.90
2013,06,19,09,24,14.70
2013,06,19,09,25,14.70
2013,06,19,09,26,14.60
2013,06,19,09,27,14.60
2013,06,19,09,28,14.50
2013,06,19,09,29,14.50
2013,06,19,09,30,14.50
2013,06,19,09,31,14.50
2013,06,19,09,32,14.50
2013,06,19,09,33,14.60
2013,06,19,09,34,14.60
2013,06,19,09,35,14.70
2013,06,19,09,36,14.70
2013,06,19,09,37,14.80
2013,06,19,09,38,15.00
2013,06,19,09,39,15.00
2013,06,19,09,40,15.00
2013,06,19,09,41,15.00
2013,06,19,09,42,15.10
2013,06,19,09,43,15.20
2013,06,19,09,44,15.30
2013,06,19,09,45,15.40
2013,06,19,09,46,15.50
2013,06,19,09,47,15.60
2013,06,19,09,48,15.60
2013,06,19,09,49,15.70
2013,06,19,09,50,15.90
2013,06,19,09,51,16.00
2013,06,19,09,52,16.10
2013,06,19,09,53,16.30
2013,06,19,09,54,16.40
2013,06,19,09,55,16.60
2013,06,19,09,56,16.70
2013,06,19,09,57,16.80
2013,06,19,09,58,17.00
2013,06,19,09,59,17.10
2013,06,19,10,00,17.20
2013,06,19,10,01,17.20
2013,06,19,10,02,17.30
2013,06,19,10,03,17.30
2013,06,19,10,04,17.30
2013,06,19,10,05,17.30
2013,06,19,10,06,17.30
2013,06,19,10,07,17.20
2013,06,19,10,08,17.20
2013,06,19,10,09,17.20
2013,06,19,10,10,17.20
2013,06,19,10,11,17.20
2013,06,19,10,12,17.30
2013,06,19,10,13,17.20
2013,06,19,10,14,17.20
2013,06,19,10,15,17.10
2013,06,19,10,16,17.00
2013,06,19,10,17,17.00
2013,06,19,10,18,17.00
2013,06,19,10,19,16.90
2013,06,19,10,20,16.90
2013,06,19,10,21,16.90
2013,06,19,10,22,17.00
2013,06,19,10,23,17.00
2013,06,19,10,24,17.10
2013,06,19,10,25,17.00
2013,06,19,10,26,17.00
2013,06,19,10,27,17.00
2013,06,19,10,28,16.90
2013,06,19,10,29,16.90
2013,06,19,10,30,16.80
2013,06,19,10,31,16.70
2013,06,19,10,32,16.60
2013,06,19,10,33,16.50
2013,06,19,10,34,16.40
2013,06,19,10,35,16.40
2013,06,19,10,36,16.40
2013,06,19,10,37,16.40
2013,06,19,10,38,16.50
2013,06,19,10,39,16.50
2013,06,19,10,40,16.60
2013,06,19,10,41,16.60
2013,06,19,10,42,16.70
2013,06,19,10,43,16.80
2013,06,19,10,44,16.90
2013,06,19,10,45,17.00
2013,06,19,10,46,17.10
2013,06,19,10,47,17.30
2013,06,19,10,48,17.40
2013,06,19,10,49,17.60
2013,06,19,10,50,17.70
2013,06,19,10,51,17.80
2013,06,19,10,52,17.90
2013,06,19,10,53,18.00
2013,06,19,10,54,18.10
2013,06,19,10,55,18.10
2013,06,19,10,56,18.10
2013,06,19,10,57,18.20
2013,06,19,10,58,18.20
2013,06,19,10,59,18.20
2013,06,19,11,00,18.30
2013,06,19,11,01,18.40
2013,06,19,11,02,18.50
2013,06,19,11,03,18.60
2013,06,19,11,04,18.70
2013,06,19,11,05,18.80
2013,06,19,11,06,18.80
2013,06,19,11,07,18.80
2013,06,19,11,08,18.70
2013,06,19,11,09,18.70
2013,06,19,11,10,18.60
2013,06,19,11,11,18.60
2013,06,19,11,12,18.60
2013,06,19,11,13,18.50
2013,06,19,11,14,18.50
2013,06,19,11,15,18.40
2013,06,19,11,16,18.40
2013,06,19,11,17,18.30
2013,06,19,11,18,18.30
2013,06,19,11,19,18.30
2013,06,19,11,20,18.20
2013,06,19,11,21,18.20
2013,06,19,11,22,18.20
2013,06,19,11,23,18.20
2013,06,19,11,24,18.20
2013,06,19,11,25,18.20
2013,06,19,11,26,18.30
2013,06,19,11,27,18.30
2013,06,19,11,28,18.30
2013,06,19,11,29,18.20
2013,06,19,11,30,18.20
2013,06,19,11,31,18.10
2013,06,19,11,32,18.00
2013,06,19,11,33,17.90
2013,06,19,11,34,17.90
2013,06,19,11,35,17.80
2013,06,19,11,36,17.80
2013,06,19,11,37,17.80
2013,06,19,11,38,17.80
2013,06,19,11,39,17.80
2013,06,19,11,40,17.80
2013,06,19,11,41,17.80
2013,06,19,11,42,17.80
2013,06,19,11,43,17.90
2013,06,19,11,44,17.90
2013,06,19,11,45,17.90
2013,06,19,11,46,18.00
2013,06,19,11,47,18.00
2013,06,19,11,48,18.10
2013,06,19,11,49,18.10
2013,06,19,11,50,18.10
2013,06,19,11,51,18.20
2013,06,19,11,52,18.20
2013,06,19,11,53,18.30
2013,06,19,11,54,18.40
2013,06,19,11,55,18.50
2013,06,19,11,56,18.60
2013,06,19,11,57,18.70
2013,06,19,11,58,18.70
2013,06,19,11,59,18.70
2013,06,19,12,00,18.70
2013,06,19,12,01,18.70
2013,06,19,12,02,18.70
2013,06,19,12,03,18.60
2013,06,19,12,04,18.40
2013,06,19,12,05,18.40
2013,06,19,12,06,18.30
2013,06,19,12,07,18.20
2013,06,19,12,08,18.20
2013,06,19,12,09,18.10
2013,06,19,12,10,18.10
2013,06,19,12,11,18.10
2013,06,19,12,12,18.10
2013,06,19,12,13,18.10
2013,06,19,12,14,18.10
2013,06,19,12,15,18.10
2013,06,19,12,16,18.10
2013,06,19,12,17,18.10
2013,06,19,12,18,18.10
2013,06,19,12,19,18.10
2013,06,19,12,20,18.10
2013,06,19,12,21,18.10
2013,06,19,12,22,18.20
2013,06,19,12,23,18.20
2013,06,19,12,24,18.20
2013,06,19,12,25,18.20
2013,06,19,12,26,18.20
2013,06,19,12,27,18.20
2013,06,19,12,28,18.20
2013,06,19,12,29,18.30
2013,06,19,12,30,18.30
2013,06,19,12,31,18.30
2013,06,19,12,32,18.30
2013,06,19,12,33,18.40
2013,06,19,12,34,18.40
2013,06,19,12,35,18.40
2013,06,19,12,36,18.40
2013,06,19,12,37,18.40
2013,06,19,12,38,18.40
2013,06,19,12,39,18.40
2013,06,19,12,40,18.40
2013,06,19,12,41,18.40
2013,06,19,12,42,18.40
2013,06,19,12,43,18.40
2013,06,19,12,44,18.40
2013,06,19,12,45,18.50
2013,06,19,12,46,18.50
2013,06,19,12,47,18.60
2013,06,19,12,48,18.60
2013,06,19,12,49,18.70
2013,06,19,12,50,18.70
2013,06,19,12,51,18.80
2013,06,19,12,52,18.80
2013,06,19,12,53,18.70
2013,06,19,12,54,18.70
2013,06,19,12,55,18.70
2013,06,19,12,56,18.70
2013,06,19,12,57,18.70
2013,06,19,12,58,18.70
2013,06,19,12,59,18.70
2013,06,19,13,00,18.70
2013,06,19,13,01,18.80
2013,06,19,13,02,18.80
2013,06,19,13,03,18.80
2013,06,19,13,04,18.80
2013,06,19,13,05,18.80
2013,06,19,13,06,18.80
2013,06,19,13,07,18.80
2013,06,19,13,08,18.90
2013,06,19,13,09,18.90
2013,06,19,13,10,18.90
2013,06,19,13,11,18.90
2013,06,19,13,12,18.90
2013,06,19,13,13,18.90
2013,06,19,13,14,18.90
2013,06,19,13,15,18.90
2013,06,19,13,16,19.00
2013,06,19,13,17,19.00
2013,06,19,13,18,19.10
2013,06,19,13,19,19.10
2013,06,19,13,20,19.10
2013,06,19,13,21,19.10
2013,06,19,13,22,19.10
2013,06,19,13,23,19.10
2013,06,19,13,24,19.00
2013,06,19,13,25,19.00
2013,06,19,13,26,18.90
2013,06,19,13,27,18.90
2013,06,19,13,28,19.00
2013,06,19,13,29,18.90
2013,06,19,13,30,18.90
2013,06,19,13,31,18.90
2013,06,19,13,32,18.80
2013,06,19,13,33,18.80
2013,06,19,13,34,18.70
2013,06,19,13,35,18.60
2013,06,19,13,36,18.60
2013,06,19,13,37,18.40
2013,06,19,13,38,18.30
2013,06,19,13,39,18.30
2013,06,19,13,40,18.20
2013,06,19,13,41,18.20
2013,06,19,13,42,18.20
2013,06,19,13,43,18.20
2013,06,19,13,44,18.10
2013,06,19,13,45,18.20
2013,06,19,13,46,18.20
2013,06,19,13,47,18.20
2013,06,19,13,48,18.30
2013,06,19,13,49,18.30
2013,06,19,13,50,18.40
2013,06,19,13,51,18.50
2013,06,19,13,52,18.50
2013,06,19,13,53,18.60
2013,06,19,13,54,18.60
2013,06,19,13,55,18.70
2013,06,19,13,56,18.70
2013,06,19,13,57,18.70
2013,06,19,13,58,18.80
2013,06,19,13,59,18.80
2013,06,19,14,00,18.80
2013,06,19,14,01,18.80
2013,06,19,14,02,18.80
2013,06,19,14,03,18.90
2013,06,19,14,04,18.90
2013,06,19,14,05,18.90
2013,06,19,14,06,18.90
2013,06,19,14,07,19.00
2013,06,19,14,08,19.00
2013,06,19,14,09,19.00
2013,06,19,14,10,19.00
2013,06,19,14,11,19.00
2013,06,19,14,12,18.90
2013,06,19,14,13,18.90
2013,06,19,14,14,18.90
2013,06,19,14,15,18.80
2013,06,19,14,16,18.80
2013,06,19,14,17,18.80
2013,06,19,14,18,18.80
2013,06,19,14,19,18.80
2013,06,19,14,20,18.70
2013,06,19,14,21,18.70
2013,06,19,14,22,18.70
2013,06,19,14,23,18.70
2013,06,19,14,24,18.70
2013,06,19,14,25,18.60
2013,06,19,14,26,18.60
2013,06,19,14,27,18.60
2013,06,19,14,28,18.60
2013,06,19,14,29,18.60
2013,06,19,14,30,18.60
2013,06,19,14,31,18.60
2013,06,19,14,32,18.60
2013,06,19,14,33,18.60
2013,06,19,14,34,18.60
2013,06,19,14,35,18.60
2013,06,19,14,36,18.50
2013,06,19,14,37,18.50
2013,06,19,14,38,18.50
2013,06,19,14,39,18.40
2013,06,19,14,40,18.40
2013,06,19,14,41,18.40
2013,06,19,14,42,18.40
2013,06,19,14,43,18.40
2013,06,19,14,44,18.40
2013,06,19,14,45,18.40
2013,06,19,14,46,18.40
2013,06,19,14,47,18.30
2013,06,19,14,48,18.30
2013,06,19,14,49,18.20
2013,06,19,14,50,18.20
2013,06,19,14,51,18.00
2013,06,19,14,52,17.90
2013,06,19,14,53,17.70
2013,06,19,14,54,17.60
2013,06,19,14,55,17.40
2013,06,19,14,56,17.20
2013,06,19,14,57,17.00
2013,06,19,14,58,16.90
2013,06,19,14,59,16.80
2013,06,19,15,00,16.70
2013,06,19,15,01,16.60
2013,06,19,15,02,16.50
2013,06,19,15,03,16.40
2013,06,19,15,04,16.30
2013,06,19,15,05,16.20
2013,06,19,15,06,16.10
2013,06,19,15,07,16.00
2013,06,19,15,08,16.00
2013,06,19,15,09,15.90
2013,06,19,15,10,15.90
2013,06,19,15,11,15.90
2013,06,19,15,12,15.90
2013,06,19,15,13,16.00
2013,06,19,15,14,16.00
2013,06,19,15,15,15.90
2013,06,19,15,16,15.90
2013,06,19,15,17,15.90
2013,06,19,15,18,15.90
2013,06,19,15,19,15.80
2013,06,19,15,20,15.80
2013,06,19,15,21,15.80
2013,06,19,15,22,15.80
2013,06,19,15,23,15.70
2013,06,19,15,24,15.60
2013,06,19,15,25,15.50
2013,06,19,15,26,15.40
2013,06,19,15,27,15.40
2013,06,19,15,28,15.40
2013,06,19,15,29,15.30
2013,06,19,15,30,15.30
2013,06,19,15,31,15.30
2013,06,19,15,32,15.40
2013,06,19,15,33,15.40
2013,06,19,15,34,15.40
2013,06,19,15,35,15.30
2013,06,19,15,36,15.30
2013,06,19,15,37,15.30
2013,06,19,15,38,15.30
2013,06,19,15,39,15.30
2013,06,19,15,40,15.20
2013,06,19,15,41,15.20
2013,06,19,15,42,15.20
2013,06,19,15,43,15.20
2013,06,19,15,44,15.20
2013,06,19,15,45,15.20
2013,06,19,15,46,15.20
2013,06,19,15,47,15.20
2013,06,19,15,48,15.20
2013,06,19,15,49,15.20
2013,06,19,15,50,15.20
2013,06,19,15,51,15.20
2013,06,19,15,52,15.20
2013,06,19,15,53,15.20
2013,06,19,15,54,15.30
2013,06,19,15,55,15.30
2013,06,19,15,56,15.30
2013,06,19,15,57,15.30
2013,06,19,15,58,15.40
2013,06,19,15,59,15.40
2013,06,19,16,00,15.40
2013,06,19,16,01,15.40
2013,06,19,16,02,15.30
2013,06,19,16,03,15.30
2013,06,19,16,04,15.30
2013,06,19,16,05,15.30
2013,06,19,16,06,15.30
2013,06,19,16,07,15.30
2013,06,19,16,08,15.30
2013,06,19,16,09,15.30
2013,06,19,16,10,15.30
2013,06,19,16,11,15.30
2013,06,19,16,12,15.30
2013,06,19,16,13,15.30
2013,06,19,16,14,15.30
2013,06,19,16,15,15.30
2013,06,19,16,16,15.30
2013,06,19,16,17,15.30
2013,06,19,16,18,15.30
2013,06,19,16,19,15.30
2013,06,19,16,20,15.30
2013,06,19,16,21,15.40
2013,06,19,16,22,15.40
2013,06,19,16,23,15.40
2013,06,19,16,24,15.40
2013,06,19,16,25,15.40
2013,06,19,16,26,15.40
2013,06,19,16,27,15.40
2013,06,19,16,28,15.50
2013,06,19,16,29,15.50
2013,06,19,16,30,15.50
2013,06,19,16,31,15.50
2013,06,19,16,32,15.40
2013,06,19,16,33,15.40
2013,06,19,16,34,15.50
2013,06,19,16,35,15.50
2013,06,19,16,36,15.60
2013,06,19,16,37,15.60
2013,06,19,16,38,15.70
2013,06,19,16,39,15.70
2013,06,19,16,40,15.60
2013,06,19,16,41,15.70
2013,06,19,16,42,15.70
2013,06,19,16,43,15.70
2013,06,19,16,44,15.70
2013,06,19,16,45,15.80
2013,06,19,16,46,15.80
2013,06,19,16,47,15.80
2013,06,19,16,48,15.80
2013,06,19,16,49,15.80
2013,06,19,16,50,15.80
2013,06,19,16,51,15.80
2013,06,19,16,52,15.90
2013,06,19,16,53,16.00
2013,06,19,16,54,16.10
2013,06,19,16,55,16.20
2013,06,19,16,56,16.30
2013,06,19,16,57,16.50
2013,06,19,16,58,16.50
2013,06,19,16,59,16.60
2013,06,19,17,00,16.70
2013,06,19,17,01,16.80
2013,06,19,17,02,16.90
2013,06,19,17,03,17.00
2013,06,19,17,04,17.00
2013,06,19,17,05,17.10
2013,06,19,17,06,17.20
2013,06,19,17,07,17.30
2013,06,19,17,08,17.40
2013,06,19,17,09,17.50
2013,06,19,17,10,17.70
2013,06,19,17,11,17.80
2013,06,19,17,12,18.00
2013,06,19,17,13,18.20
2013,06,19,17,14,18.30
2013,06,19,17,15,18.50
2013,06,19,17,16,18.70
2013,06,19,17,17,18.80
2013,06,19,17,18,18.90
2013,06,19,17,19,18.90
2013,06,19,17,20,18.80
2013,06,19,17,21,18.90
2013,06,19,17,22,18.90
2013,06,19,17,23,18.90
2013,06,19,17,24,18.90
2013,06,19,17,25,18.90
2013,06,19,17,26,18.90
2013,06,19,17,27,18.90
2013,06,19,17,28,18.90
2013,06,19,17,29,19.00
2013,06,19,17,30,19.00
2013,06,19,17,31,19.10